Location: Newark
(55.4390°N, 25.0170°E)
Time: 23:17:18
(UTC+00:00)

Envisat - Pass Details

Date: 14 March 2021
Orbit: 764 x 766 km, 98.1° (Epoch: 22 April)

Event Time Altitude Azimuth Distance (km) Brightness Sun altitude
Rises 03:06:45 0° 21° (NNE) 3,248 6.8 -13.6°
Reaches altitude 10° 03:09:25 10° 34° (NE) 2,316 6.2 -13.2°
Maximum altitude 03:13:43 27° 91° (E) 1,456 5.3 -12.6°
Drops below altitude 10° 03:17:59 10° 149° (SSE) 2,301 5.7 -12.1°
Sets 03:20:37 0° 161° (SSE) 3,221 6.3 -11.7°
